TimePDT,TemperatureF,Dew PointF,Humidity,Sea Level PressureIn,VisibilityMPH,Wind Direction,Wind SpeedMPH,Gust SpeedMPH,PrecipitationIn,Events,Conditions,WindDirDegrees,DateUTC
12:55 AM,60.1,39.0,46,29.86,10.0,WNW,16.1,-,N/A,,Mostly Cloudy,300,2013-06-20 07:55:00
1:55 AM,59.0,39.0,48,29.83,10.0,WNW,15.0,-,N/A,,Partly Cloudy,300,2013-06-20 08:55:00
2:55 AM,59.0,39.0,48,29.83,10.0,WNW,17.3,-,N/A,,Overcast,300,2013-06-20 09:55:00
3:55 AM,57.0,41.0,55,29.83,10.0,WNW,15.0,-,0.00,Rain,Light Rain,300,2013-06-20 10:55:00
4:55 AM,57.0,39.9,53,29.83,10.0,NW,16.1,-,0.00,Rain,Light Rain,310,2013-06-20 11:55:00
5:55 AM,55.9,39.0,53,29.83,10.0,NW,12.7,-,0.00,,Overcast,320,2013-06-20 12:55:00
6:55 AM,55.0,41.0,59,29.82,10.0,NW,10.4,-,0.00,Rain,Light Rain,320,2013-06-20 13:55:00
7:55 AM,55.9,39.9,55,29.82,10.0,NW,9.2,-,0.00,,Overcast,320,2013-06-20 14:55:00
8:55 AM,57.9,37.9,47,29.83,10.0,WNW,11.5,-,N/A,,Overcast,300,2013-06-20 15:55:00
9:55 AM,60.1,37.0,42,29.84,10.0,NW,10.4,-,N/A,,Overcast,310,2013-06-20 16:55:00
10:55 AM,60.1,37.9,44,29.84,10.0,NW,5.8,-,N/A,,Overcast,310,2013-06-20 17:55:00
11:55 AM,57.9,44.1,60,29.84,10.0,North,-9999.0,-,N/A,,Mostly Cloudy,0,2013-06-20 18:55:00
12:55 PM,59.0,44.1,58,29.85,10.0,North,-9999.0,-,N/A,,Mostly Cloudy,0,2013-06-20 19:55:00
1:55 PM,63.0,39.0,41,29.86,10.0,West,16.1,-,0.00,Rain,Light Rain,270,2013-06-20 20:55:00
2:55 PM,63.0,37.9,40,29.87,10.0,West,11.5,-,0.00,,Overcast,280,2013-06-20 21:55:00
3:55 PM,63.0,39.0,41,29.90,10.0,West,16.1,23.0,0.00,Rain,Light Rain,270,2013-06-20 22:55:00
4:55 PM,60.1,43.0,53,29.92,10.0,WNW,10.4,-,0.00,Rain,Light Rain,290,2013-06-20 23:55:00
5:55 PM,62.1,42.1,48,29.93,10.0,NW,8.1,-,0.00,,Overcast,320,2013-06-21 00:55:00
6:55 PM,60.1,43.0,53,29.95,10.0,NW,6.9,-,0.00,,Overcast,310,2013-06-21 01:55:00
7:55 PM,57.0,46.0,67,29.98,10.0,NW,9.2,-,0.01,Rain,Light Rain,320,2013-06-21 02:55:00
8:55 PM,55.9,46.9,72,30.00,10.0,NNW,3.5,-,0.00,,Overcast,340,2013-06-21 03:55:00
9:55 PM,55.0,46.9,74,30.01,10.0,Calm,Calm,-,N/A,,Overcast,0,2013-06-21 04:55:00
10:55 PM,55.0,46.0,72,30.01,10.0,NW,4.6,-,N/A,,Overcast,310,2013-06-21 05:55:00
11:55 PM,55.0,44.1,67,30.02,10.0,WNW,5.8,-,N/A,,Overcast,300,2013-06-21 06:55:00